Simultaneous Nadir Overpasses (SNOs) Predictions

Prediction of SNOs between GOES-16 and METOP-B Satellite Orbit:

Table of predicted SNOs for the next 14.0 days since TLE Epoch: 4/3/2020
Index Date Time (GOES-16) GOES-16 Lat,Lon METOP-B Lat,Lon Distance(km) Time Diff (sec)
1 04/04/2020 14:31:14 0.00, -75.17 -0.07, -74.85 36.38 80
2 04/06/2020 02:50:14 -0.00, -75.17 -0.96, -79.44 487.16 80
3 04/07/2020 02:26:55 -0.00, -75.19 0.14, -74.45 84.06 80
4 04/08/2020 14:45:47 0.00, -75.25 0.87, -79.01 429.63 80
5 04/09/2020 14:27:49 0.01, -75.27 -0.29, -74.03 141.94 80
6 04/11/2020 02:46:49 -0.00, -75.28 -0.75, -78.62 380.69 80
7 04/12/2020 02:23:30 -0.00, -75.30 0.35, -73.62 190.98 80
8 04/13/2020 14:42:22 -0.00, -75.37 0.65, -78.19 322.13 80
9 04/14/2020 14:24:23 -0.01, -75.40 -0.51, -73.21 249.90 80
10 04/16/2020 02:43:24 0.01, -75.42 -0.53, -77.80 271.80 80
11 04/17/2020 02:20:05 0.01, -75.45 0.63, -72.82 300.72 80




NCC Satellite Simultaneous Nadir Overpasses (SNOs) Prediction Service
